Retour au catalogue

FENGYUN 1C DEB

ActifSSO
NORAD 32133·DEBRIS·🇨🇳 China

Lancé May 10, 1999 depuis Taiyuan Satellite Launch Center

Loading…

Prochains Passages (prochaines 24 heures)

TLE

FraisSource: Space-Track

Époque: Sep 14, 2026, 10:03 UTC

1 32133U 99025CSB 26257.41924282  .00000192  00000-0  11258-3 0  9993
2 32133  98.4446 250.0846 0035918  24.9044 335.3856 14.18268041988826

Suivez FENGYUN 1C DEB en temps réel avec AllMySat

Download on the App Store